User: anonymous   Login
Location: *
(39.6167°S, 171.5333°W)
Time: 02:08:24
(UTC+00:00)
Language:

Cosmos 1076 Rocket - Orbit

View from above orbital plane
View from above orbital plane
View from above satellite
View from above satellite

Ground track
Ground track

The orbit data is extracted from the following two-line orbital elements,

1 11267U 79011B   21208.56625038  .00000105  00000-0  84892-5 0  9995
2 11267  82.5235 251.8104 0015282 276.8068  83.1411 14.89030674277679
Epoch (UTC): 27 July 2021 13:35:24
Eccentricity: 0.0015282
inclination: 82.5235°
perigee height: 590 km
apogee height: 611 km
right ascension of ascending node: 251.8104°
argument of perigee: 276.8068°
revolutions per day: 14.89030674
mean anomaly at epoch: 83.1411°
orbit number at epoch: 27767

The dashed part of the orbit path shows where the satellite is in the earth's shadow,  

DLR